Location: Brighton Point
(40.6144°N, 111.7933°W)
Time: 01:27:53
(UTC+00:00)

N. Korean satellite - Pass Details

Date: 13 March 2021
Orbit: 453 x 499 km, 97.2° (Epoch: 11 April)

Event Time Altitude Azimuth Distance (km) Brightness Sun altitude
Rises 11:55:26 0° 31° (NNE) 2,564 10.9 -20.8°
Reaches altitude 10° 11:58:08 10° 53° (NE) 1,686 10.3 -20.3°
Maximum altitude 12:00:28 16° 93° (E) 1,347 9.7 -19.9°
Drops below altitude 10° 12:02:48 10° 133° (SE) 1,690 9.7 -19.4°
Sets 12:05:30 0° 156° (SSE) 2,572 10.4 -18.9°
